NOAA 16 DEB, 42362

Orbit data source: Space-Track

NOAA 16 DEB, 42362 is space debris in SSO originally from a launch on Thu, 21 Sep 2000 UTC launched from the Air Force Western Test Range (AFWTR). Debris objects in space refer to the collection of defunct objects orbiting the Earth. Examples of debris include non-operational satellites, rocket bodies, and fragments generated from explosions, collisions, or faulty payload assembly.

Loading next visibility...
Identifier
42362, 2000-055RE
Orbit
SSO
Country
Flag of USUS
Related business
Manufacturer
Unknown
Mission
Spacecraft
Bus & Motor
Unknown
Mass
Unknown
Launch date (UTC)
2000-09-21 (25 years ago)
Launch vehicle
Unknown
Launch site
Air Force Western Test Range (AFWTR)
Object type
Payload
Rocket body
Debris
Shape & HBR
Unknown shape, 0.1 m
Radar Cross Section
Small (<0.1 m²)

Expand to show TLE details & history
Last TLE update: 4 days ago

TLE from 4 days ago
0 NOAA 16 DEB
1 42362U 00055RE  25285.62414769  .00007880  00000-0  43175-2 0  9993
2 42362  98.8626 245.9409 0093649 157.5635 202.9672 14.09884254492800
Epoch: 2025-10-12T14:58Z
TLE epoch observation values (Epoch: 2025-10-12T14:58:46.360Z)
Latitude
-0.00004°
Longitude
-0.19087°
Altitude
925.181 km
Speed
7.357 km/s
True Right ascension
16h 23m 45s
True Declination
0° 00' 00"
Sunlit
Object was in daylight at epoch
Visualization orbit readout
Latitude
Unknown
Longitude
Unknown
Altitude
Unknown
Speed
Unknown
Apparent Right ascension
Unknown
Apparent Declination
Unknown
Sunlit
N/A
Visualization observer readout
Local Sidereal Time
12:20:10
Azimuth
Unknown
Elevation
Unknown
Doppler factor
Unknown
Orbital elements
Apogee altitude
924.703 km
Perigee altitude
789.191 km
Semi-major axis
7,235.084 km
Eccentricity
0.00936
Inclination
98.8626°
RAAN
245.9409°
Arg. of periapsis
157.5635°
True anomaly
202.55293°
Mean anomaly
202.9672°
Eccentric anomaly
202.75962°
Mean motion
3.52678 °/min
Orbital period
102.08 mins
BSTAR
0.0043175
Loading maneuver chart data...
Computing Atmospheric mass density...

Documentation

Showing up to 5 results
|